Home > Time Zones > World Clock > Weather > Iran > Ahvaz > Past weeks

Flag for Iran Weather past 2 weeks in Ahvaz, Iran

Now
63 °F

Clear.


Feels Like: 63 °F
Forecast: 57 / 79 °F
Wind: No wind

Location: Ahwaz

Current Time: Feb 28, 2015 at 1:46:06 AM

Latest Report: Feb 28, 2015 at 12:30 AM


Visibility: 10 mi

Pressure: 30.01 "Hg

Humidity: 42%

Dew point: 39 °F

Location of AhvazLocation

Historic Weather in Ahvaz — Graph

°F

Ahvaz temperature yesterday

Maximum temperature yesterday: 77 °F (at 2:00 PM)
Minimum temperature yesterday: 50 °F (at 6:30 AM)
Average temperature yesterday: 66 °F

Past Weeks' High & Low Weather Summary

 TemperatureHumidityPressure
High77 °F (Feb 16, 2:55 PM)100% (Feb 18, 7:30 AM)30.15 "Hg (Feb 18, 7:30 AM)
Low43 °F (Feb 23, 4:30 AM)16% (Feb 14, 3:00 PM)29.56 "Hg (Feb 20, 2:30 PM)
Average60 °F58%29.97 "Hg
* Reported Feb 12 11:30 PM — Midnight between Feb 27 and Feb 28, Ahvaz, Weather by CustomWeather, © 2015

Note: Actual official high and low records may vary slightly from our data, if they occured in-between our weather recording intervals... More about our weather records

Advertising

Ahvaz weather history for previous 24 hours

 ConditionsComfort  
Time TempWeatherWind HumidityBarometerVisibility
12:00 AM
Sat, Feb 28
64 °FClear.5 mph40%30.01 "Hg10 mi
11:30 PM
Fri, Feb 27
64 °FClear.5 mph37%30.01 "Hg10 mi
11:00 PM63 °FClear.5 mph42%30.01 "Hg10 mi
10:30 PM63 °FClear.5 mph45%30.01 "Hg10 mi
9:55 PM63 °FClear.No wind42%30.01 "Hg10 mi
9:30 PM66 °FClear.5 mph40%30.01 "Hg10 mi
8:55 PM68 °FClear.No wind33%30.01 "Hg10 mi
8:30 PM68 °FClear.5 mph30%30.01 "Hg10 mi
7:55 PM68 °FClear.5 mph33%30.01 "Hg10 mi
7:30 PM70 °FClear.5 mph35%30.01 "Hg10 mi
6:55 PM70 °FClear.5 mph33%29.98 "Hg10 mi
6:30 PM73 °FSunny.5 mph29%29.98 "Hg10 mi
5:55 PM73 °FSunny.7 mph27%29.98 "Hg10 mi
5:30 PM75 °FSunny.7 mph24%29.98 "Hg10 mi
4:55 PM77 °FSunny.5 mph22%29.95 "Hg10 mi
4:30 PM77 °FSunny.5 mph21%29.95 "Hg10 mi
3:55 PM77 °FSunny.5 mph21%29.95 "Hg10 mi
3:30 PM77 °FSunny.9 mph21%29.95 "Hg10 mi
2:55 PM77 °FSunny.No wind21%29.95 "Hg10 mi
2:30 PM77 °FSunny.7 mph21%29.95 "Hg10 mi
2:00 PM77 °FSunny.7 mph24%29.98 "Hg10 mi
1:30 PM75 °FSunny.5 mph27%29.98 "Hg10 mi
1:00 PM75 °FSunny.No wind27%29.98 "Hg10 mi
12:30 PM73 °FSunny.5 mph29%29.98 "Hg10 mi
12:00 PM72 °FSunny.5 mph38%30.01 "Hg10 mi
11:30 AM70 °FSunny.5 mph40%30.01 "Hg10 mi
11:00 AM70 °FSunny.5 mph43%30.01 "Hg10 mi
10:30 AM66 °FSunny.2 mph49%30.01 "Hg10 mi
10:00 AM64 °FSunny.5 mph56%29.98 "Hg10 mi
9:30 AM61 °FSunny.7 mph59%29.98 "Hg10 mi
9:00 AM59 °FSunny.5 mph63%29.98 "Hg10 mi
8:30 AM57 °FSunny.5 mph67%29.98 "Hg10 mi
8:00 AM54 °FSunny.5 mph77%29.95 "Hg10 mi
6:30 AM50 °FClear.5 mph88%29.95 "Hg10 mi
5:30 AM52 °FClear.5 mph77%29.95 "Hg10 mi
4:30 AM54 °FClear.5 mph77%29.95 "Hg10 mi
3:30 AM54 °FClear.9 mph72%29.95 "Hg10 mi
2:30 AM55 °FClear.9 mph72%29.95 "Hg10 mi
1:30 AM57 °FClear.5 mph67%29.98 "Hg10 mi
Weather by CustomWeather, © 2015

See weather overviewHow to use our weather pages